TimeHST,TemperatureF,Dew PointF,Humidity,Sea Level PressureIn,VisibilityMPH,Wind Direction,Wind SpeedMPH,Gust SpeedMPH,PrecipitationIn,Events,Conditions,WindDirDegrees,DateUTC
12:53 AM,33.8,33.8,100,30.60,2.5,East,16.1,-,N/A,,Overcast,80,2014-02-08 10:53:00
12:56 AM,34.0,34.0,100,30.61,2.5,East,16.1,-,N/A,,Overcast,90,2014-02-08 10:56:00
1:06 AM,33.8,33.8,100,30.60,5.0,East,16.1,-,N/A,,Overcast,80,2014-02-08 11:06:00
1:20 AM,33.8,33.8,100,30.60,2.5,East,18.4,-,N/A,,Overcast,80,2014-02-08 11:20:00
1:43 AM,33.8,33.8,100,30.60,5.0,East,13.8,-,N/A,,Overcast,90,2014-02-08 11:43:00
1:56 AM,34.0,34.0,100,30.60,3.0,East,15.0,-,N/A,,Overcast,90,2014-02-08 11:56:00
2:56 AM,34.0,34.0,100,30.58,10.0,East,19.6,-,N/A,,Overcast,90,2014-02-08 12:56:00
3:08 AM,33.8,33.8,100,30.58,6.2,East,18.4,-,N/A,,Overcast,90,2014-02-08 13:08:00
3:41 AM,33.8,33.8,100,30.57,5.0,East,19.6,-,N/A,,Overcast,80,2014-02-08 13:41:00
3:56 AM,34.0,34.0,100,30.57,6.0,East,18.4,-,N/A,,Overcast,90,2014-02-08 13:56:00
4:18 AM,33.8,33.8,100,30.56,1.8,East,19.6,-,N/A,,Overcast,80,2014-02-08 14:18:00
4:33 AM,33.8,33.8,100,30.56,2.5,East,17.3,-,N/A,,Overcast,80,2014-02-08 14:33:00
4:40 AM,33.8,33.8,100,30.56,4.0,East,20.7,-,N/A,,Overcast,90,2014-02-08 14:40:00
4:56 AM,34.0,34.0,100,30.56,10.0,East,18.4,-,N/A,,Overcast,90,2014-02-08 14:56:00
5:17 AM,33.8,33.8,100,30.55,10.0,East,17.3,-,N/A,,Overcast,90,2014-02-08 15:17:00
5:42 AM,33.8,33.8,100,30.53,5.0,East,16.1,-,N/A,,Overcast,80,2014-02-08 15:42:00
5:56 AM,34.0,33.1,96,30.53,4.0,ENE,15.0,-,N/A,,Overcast,70,2014-02-08 15:56:00
6:56 AM,33.1,33.1,100,30.53,5.0,ENE,15.0,-,N/A,,Mostly Cloudy,70,2014-02-08 16:56:00
7:30 AM,33.8,33.8,100,30.51,10.0,ENE,13.8,-,N/A,,Scattered Clouds,70,2014-02-08 17:30:00
7:56 AM,34.0,34.0,100,30.51,10.0,ENE,15.0,-,N/A,,Clear,60,2014-02-08 17:56:00
8:53 AM,35.6,33.8,93,30.51,10.0,ENE,15.0,-,N/A,,Partly Cloudy,70,2014-02-08 18:53:00
8:56 AM,35.1,34.0,96,30.52,10.0,ENE,17.3,-,N/A,,Partly Cloudy,70,2014-02-08 18:56:00
9:41 AM,35.6,33.8,93,30.52,10.0,East,18.4,-,N/A,,Mostly Cloudy,80,2014-02-08 19:41:00
9:53 AM,35.6,33.8,93,30.52,10.0,ENE,18.4,-,N/A,,Overcast,70,2014-02-08 19:53:00
9:56 AM,35.1,33.1,92,30.52,10.0,East,19.6,-,N/A,,Overcast,80,2014-02-08 19:56:00
10:56 AM,35.1,30.9,85,30.51,10.0,East,20.7,-,N/A,,Mostly Cloudy,90,2014-02-08 20:56:00
11:56 AM,35.1,30.9,85,30.50,10.0,East,19.6,-,N/A,,Overcast,80,2014-02-08 21:56:00
12:56 PM,36.0,32.0,86,30.48,10.0,East,23.0,-,N/A,,Overcast,80,2014-02-08 22:56:00
1:12 PM,37.4,32.0,81,30.47,10.0,East,18.4,25.3,N/A,,Overcast,80,2014-02-08 23:12:00
1:56 PM,37.0,33.1,86,30.46,10.0,East,21.9,-,N/A,,Overcast,80,2014-02-08 23:56:00
2:56 PM,37.9,33.1,83,30.45,10.0,East,21.9,-,N/A,,Overcast,90,2014-02-09 00:56:00
3:56 PM,37.0,33.1,86,30.42,10.0,East,24.2,29.9,N/A,,Overcast,80,2014-02-09 01:56:00
4:56 PM,37.0,33.1,86,30.40,10.0,East,21.9,-,N/A,,Overcast,80,2014-02-09 02:56:00
5:56 PM,36.0,32.0,86,30.41,10.0,ENE,25.3,-,N/A,,Overcast,70,2014-02-09 03:56:00
6:56 PM,36.0,32.0,86,30.41,10.0,East,23.0,-,N/A,,Overcast,80,2014-02-09 04:56:00
7:56 PM,36.0,33.1,89,30.40,10.0,East,21.9,27.6,N/A,,Overcast,80,2014-02-09 05:56:00
8:56 PM,36.0,33.1,89,30.40,10.0,East,23.0,-,N/A,,Overcast,80,2014-02-09 06:56:00
9:56 PM,36.0,33.1,89,30.40,10.0,East,23.0,-,N/A,,Overcast,80,2014-02-09 07:56:00
10:46 PM,35.6,33.8,93,30.39,10.0,East,26.5,31.1,N/A,,Overcast,80,2014-02-09 08:46:00
10:56 PM,36.0,33.1,89,30.40,10.0,East,26.5,-,N/A,,Overcast,80,2014-02-09 08:56:00
11:31 PM,35.6,33.8,93,30.40,10.0,East,23.0,-,N/A,,Overcast,80,2014-02-09 09:31:00
11:56 PM,36.0,33.1,89,30.40,10.0,East,27.6,-,N/A,,Overcast,80,2014-02-09 09:56:00